Regional Weather Roundup
Issued by NWS

Home | Current Version | Previous Version | Text Only | Print | Product List | Glossary Off
Versions: 1 2 3 4 5 6 7 8 9 10 11 12 13 14 15 16 17 18 19 20 21 22 23 24 25 26 27 28 29 30 31 32 33 34 35 36 37 38 39 40 41 42 43 44 45 46 47 48 49

000
ASUS45 KSLC 292010
RWRUT

UTAH REGIONAL WEATHER ROUNDUP
NATIONAL WEATHER SERVICE SALT LAKE CITY UT
200 PM MDT MON JUN 29 2015

UTZ001>011-023>025-292100-

NORTHERN UTAH

CITY           SKY/WX    TMP DP  RH WIND       PRES   REMARKS
BRIGHAM CITY   SUNNY     98  36  11 SW9       30.06F HX  92
HILL AFB       SUNNY     95  48  20 VRB3      30.11F HX  91
LOGAN          SUNNY     95  52  23 VRB6      30.08F HX  92
OGDEN          SUNNY     98  44  15 VRB6      30.07F HX  94
PROVO AIRPORT  MOSUNNY   97  52  21 SW6       30.08F HX  94
SALT LAKE CITY MOSUNNY   98  47  17 CALM      30.04F HX  94
VERNAL         MOSUNNY   93  41  16 S7        30.17F
WENDOVER       SUNNY     99  45  15 E10       30.05F HX  94
HEBER CITY     SUNNY     95  39  14 NW6       30.17F HX  91
WEST JORDAN    SUNNY     97  45  16 SE7       30.09F HX  93

$$

UTZ012>022-026-027-292100-

SOUTHERN/CENTRAL UTAH

CITY           SKY/WX    TMP DP  RH WIND       PRES   REMARKS
BLANDING       SUNNY     88  45  22 SW7       30.28F
BRYCE CANYON   MOSUNNY   86  39  19 SE10G18   30.36F
CEDAR CITY     MOSUNNY   96  38  13 VRB7      30.17F HX  91
DELTA          SUNNY     99  37  11 SW7       30.09F HX  93
HANKSVILLE     SUNNY    100  39  12 SE3       30.08F HX  95
MILFORD        SUNNY    100  42  13 S9        30.10F HX  95
MOAB/CYNLANDS  SUNNY     99  42  14 CALM      30.06F HX  94
PRICE          SUNNY     95  39  14 VRB3      30.19F HX  91
ST GEORGE      CLEAR    102  48  16 W8        29.97F HX  99
KANAB          SUNNY     97  43  15 S8        30.18F HX  92

$$

REGIONAL REPORTS     COLORADO/ARIZONA

CITY           SKY/WX    TMP DP  RH WIND       PRES   REMARKS
CRAIG, CO      SUNNY     90  43  19 SE6       30.25F
GRAND JUNCTION SUNNY     94  44  17 SW8       30.11F HX  90
RIFLE          SUNNY     93  43  17 VRB5      30.16F
MONTROSE       SUNNY     91  42  18 CALM      30.21F
CORTEZ         SUNNY     91  42  18 VRB5      30.21F
PAGE, AZ       SUNNY     99  44  15 VRB3      30.07F HX  95
GRAND CANYON   PTSUNNY   81  54  39 S12       30.31S
KINGMAN        SUNNY    100  49  17 SW13      30.05F HX  97
FLAGSTAFF      MOSUNNY   82  46  28 S7        30.33F

$$

REGIONAL REPORTS    NEVADA/IDAHO/WYOMING

CITY           SKY/WX    TMP DP  RH WIND       PRES   REMARKS
LAS VEGAS, NV  MOSUNNY  107  45  12 S15G21    29.88F HX 102
ELY            MOSUNNY   93  31  11 SE12G22   30.22F
ELKO           SUNNY     97  42  15 S10       30.13F HX  93
POCATELLO, ID  SUNNY     97  60  29 NW12      30.07F HX  97
BURLEY         SUNNY     93  56  28 VRB5      30.05F HX  91
EVANSTON, WY   MOSUNNY   89  40  17 NE7       30.34F
ROCK SPRINGS   SUNNY     85  43  22 NE6       30.33F
KEMMERER       SUNNY    N/A N/A N/A NE3       30.38S

$$



USA.gov is the U.S. government's official web portal to all federal, state and local government web resources and services.